Location: Crescent
(42.8242°N, 73.7329°W)
Time: 21:44:03
(UTC+00:00)

Vanguard 2 Rocket - Pass Details

Date: 19 February 2026
Orbit: 553 x 3286 km, 32.9° (Epoch: 9 March)

Event Time Altitude Azimuth Distance (km) Brightness Sun altitude
Rises 18:46:31 0° 255° (WSW) 7,218 12.1 31.7°
Reaches altitude 10° 18:51:44 10° 252° (WSW) 6,059 11.9 31.2°
Maximum altitude 19:09:05 56° 181° (S) 2,709 10.4 29.5°
Drops below altitude 10° 19:19:51 10° 107° (ESE) 3,910 10.0 28.3°
Sets 19:22:27 0° 103° (ESE) 4,595 10.3 28.1°
